STARLINK-11464, 62473

Orbit data source: Space-Track

STARLINK-11464, 62473 is a payload satellite owned by SpaceX/Seattle (US) in LEO that was launched on Tue, 31 Dec 2024 UTC via an FALCON 9 launch vehicle from the Air Force Eastern Test Range (AFETR). Payloads include a variety of satellites, spacecraft, and rockets equipped with specific instruments for various scientific and technological missions. These include communications satellites like Starlink; space stations such as the ISS; scientific satellites like the Hubble; Earth observation satellites from companies like Planet Labs, Umbra, and HawkEye 360; GPS; miniature CubeSats for education and research; and military/defense satellites.

Loading next visibility...
STARLINK-11464 details
Identifier
62473, 2024-254M
Orbit
LEO
Last TLE update10 hours ago
Origin
Flag of USSpaceX/Seattle (US)
ManufacturerSpaceX/Seattle
MissionOperational spacecraft
Bus & MotorSTARLINK V2M, Unknown motor
Mass730 kg wet, ~700 kg dry
Launch date (UTC)
2024-12-31 (4 weeks ago)
Launch vehicle
FALCON 9
Launch site
Air Force Eastern Test Range (AFETR)
Object type
Payload
Rocket body
Debris
Shape & HBRUnknown
Radar Cross SectionLarge (>1 m²)

Expand to show TLE details & history

TLE from 10 hours ago
0 STARLINK-11464
1 62473U 24254M   25025.43784086  .00046474  00000-0  19808-3 0  9997
2 62473  42.9919 165.5872 0001845 239.6263 120.4427 15.84436958  5177
Epoch: 2025-01-25T10:30Z
Definitive object data (Epoch: 2025-01-25T10:30:29.45Z)
Latitude-0.00002°
Longitude-117.0222°
Altitude318.306 km
Speed7.719 km/s
True Right ascension11h 02m 20s
True Declination0° 00' 00"
Sunlit
Object was in full shadow at TLE epoch
Visualization TLE readout
Latitude-3.53781°
Longitude64.23187°
Altitude317.438 km
Speed7.72 km/s
Apparent Right ascension01h 46m 52s
Apparent Declination-58° 25' 42"
Sunlit
Object is in daylight
Visualization observer readout
Local Sidereal Time21:42:51
Azimuth150.709° SSE
Elevation-20.611°
Doppler factor1
Orbital elements
Apogee altitude321.141 km
Perigee altitude318.669 km
Semi-major axis6,698.042 km
Eccentricity0.0001845
Inclination42.9919°
RAAN165.5872°
Arg. of periapsis239.6263°
True anomaly120.46093°
Mean anomaly120.4427°
Eccentric anomaly120.45181°
Mean motion3.95933 °/min
BSTAR0.00019808
Orbital period90.92 mins
Loading maneuver chart data...
Loading historical data...
Loading historical data...
Loading historical data...
Loading historical data...
Loading historical data...
Loading historical data...
Loading historical data...

STARLINK-11464 Visibility forecast

Observer location: undefined°, undefined

Span
Click to sort rows by Start time (UTC) header in descending order
Start Az.
Max El. time (UTC)
Max El. Az.
Max El.
End time (UTC)
End Az.
4 mins2025-01-26 12:26:46.081Z211.822° SW2025-01-26 12:28:46.081Z146.128° SSE27.58°2025-01-26 12:30:46.081Z89.677° E
4 mins2025-01-26 15:37:46.081Z301.898° NW2025-01-26 15:39:46.081Z38.354° NE31.318°2025-01-26 15:41:46.081Z79.164° E
|